Weather in Turuntaevo

Russia / Republic of Buryatia     52°12′08″N   107°38′19″E
temp.,
°C
wind,
m/s
gust,
m/s
humid.,
%
clouds,
%
prec.,
mm/h
press.,
hPa
HPBL,
m
8 december, wed
wed823:00−15s019650 0.0 102718
02:00−16ssw119654 0.0 102617
05:00−16s119553 0.0 102418
08:00−15ssw1193100 0.0 102220
11:00−10sw1279100 0.0 1021124
14:00−8sw1274100 0.0 1020201
17:00−9wsw1191100 0.0 102312
20:00−12sse019979 0.2 102610
9 december, thu
thu923:00−9ne1196100 0.6 102744
02:00−14e019999 0.9 103110
05:00−11wsw119795 0.4 103120
08:00−16ssw1110086 0.6 103410
11:00−12sw129394 0.0 1035129
14:00−9sw1283100 0.1 1033336
17:00−12s0196100 0.0 103410
20:00−11wsw1196100 0.1 103547
10 december, fri
fri1023:00−13wsw0198100 0.1 103712
02:00−15nw1197100 0.1 103812
05:00−17w019976 0.1 104011
08:00−19ssw1199100 0.1 104311
11:00−15sw129273 0.0 1042158
14:00−12wsw247962 0.1 1039577
17:00−17sse119695 0.0 103911
20:00−15ssw1196100 0.1 103928
11 december, sat
sat1123:00−17s119798 0.1 103819
02:00−15ssw229799 0.4 103788
05:00−13sw1495100 1.1 1036231
08:00−11wnw4127594 1.5 10361182
11:00−12wnw4107756 0.0 10381271
14:00−12wnw5107578 0.1 10381346
17:00−16w2687100 0.0 1040241
20:00−19w139783 0.1 104397
12 december, sun
sun1223:00−22wsw0110063 0.0 104416
02:00−24s1110084 0.0 104511
05:00−23sse0110096 0.1 104310
08:00−22ene019984 0.1 10429
11:00−16sw119283 0.0 1038111
14:00−12ssw138197 0.0 1033261
17:00−15ssw1294100 0.0 103146
20:00−17s129577 0.0 102840